Date,Time,Air Temperature,Dewpoint,Windchill,Heat Index,RH,3m Max Wind Speed,3m Mean Wind Speed,3m Wind Direction,Rain,Solar Radiation
,,F,F,F,F,%,MPH,MPH,deg,in,MJ/m^2
2024-04-15,20:35,56.6,7.4,56.6,56.6,13.7,4.9,2.6,176.7,0.0,
2024-04-15,20:40,56.5,7.6,56.5,56.5,13.9,7.2,3.2,176.7,0.0,
2024-04-15,20:45,56.3,7.5,56.3,56.3,13.9,7.2,4.1,176.8,0.0,
2024-04-15,20:50,56.4,8.5,56.4,56.4,14.5,8.5,4.6,176.8,0.0,
2024-04-15,20:55,56.2,9,56.2,56.2,14.9,7.2,3.5,176.8,0.0,
2024-04-15,21:00,56.4,9,56.4,56.4,14.9,7.8,4.4,176.8,0.0,
2024-04-15,21:05,56,9.4,56.0,56,15.3,5.5,3.1,176.7,0.0,
2024-04-15,21:10,56,9.9,56.0,56,15.6,5.8,2.4,176.7,0.0,
2024-04-15,21:15,55.7,10.3,55.7,55.7,16.1,4.7,1.9,176.7,0.0,
2024-04-15,21:20,55.5,11,55.5,55.5,16.8,6.7,2.5,176.7,0.0,
2024-04-15,21:25,55.4,11.6,55.4,55.4,17.3,4.4,1.6,176.7,0.0,
2024-04-15,21:30,54.8,12,54.8,54.8,18.0,4,1.6,176.7,0.0,
2024-04-15,21:35,54.3,12.3,54.3,54.3,18.5,4.9,2.1,176.7,0.0,
2024-04-15,21:40,54.1,13,54.1,54.1,19.2,4.4,1.7,176.7,0.0,
2024-04-15,21:45,53.5,13.1,53.5,53.5,19.8,3.7,1.1,176.8,0.0,
2024-04-15,21:50,53,13.2,53.0,53,20.2,3,0.6,176.8,0.0,
2024-04-15,21:55,53.2,13.5,53.2,53.2,20.3,4.9,2,176.8,0.0,
2024-04-15,22:00,53.6,14,53.6,53.6,20.5,4.4,1.3,176.7,0.0,
2024-04-15,22:05,53.3,14.9,53.3,53.3,21.5,4.7,1.3,176.8,0.0,
2024-04-15,22:10,53.8,16.2,53.8,53.8,22.4,8.1,3.7,176.8,0.0,
2024-04-15,22:15,53.4,16.4,53.4,53.4,23.0,6.9,4,176.7,0.0,
2024-04-15,22:20,52.8,17.8,52.8,52.8,24.9,8.7,3.9,176.8,0.0,
2024-04-15,22:25,52.2,19.6,52.2,52.2,27.4,6.7,3.3,176.8,0.0,
2024-04-15,22:30,52,20.1,52.0,52,28.3,6,3.7,176.8,0.0,
2024-04-15,22:35,51.5,20.1,51.5,51.5,28.8,4.2,2.5,176.8,0.0,
2024-04-15,22:40,51.4,20.3,51.4,51.4,29.2,6.2,2.2,176.8,0.0,
2024-04-15,22:45,50.7,20.3,50.7,50.7,29.9,3.7,2.1,176.9,0.0,
2024-04-15,22:50,50.6,20.5,50.6,50.6,30.4,5.3,1.8,176.9,0.0,
2024-04-15,22:55,50.6,20.6,50.6,50.6,30.5,4.7,2.1,176.9,0.0,
2024-04-15,23:00,50.4,20.6,50.4,50.4,30.6,4.7,2.6,176.9,0.0,
2024-04-15,23:05,50,20.6,50.0,50,31.1,3.1,1.9,176.8,0.0,
2024-04-15,23:10,49.5,20.7,49.5,49.5,31.9,3.8,1.8,176.9,0.0,
2024-04-15,23:15,49.6,21.3,49.6,49.6,32.5,5.5,2.8,176.8,0.0,
2024-04-15,23:20,49.2,21.1,49.2,49.2,32.8,2.6,1.9,176.9,0.0,
2024-04-15,23:25,49,21.2,49.0,49,33.0,4,2.1,176.9,0.0,
2024-04-15,23:30,48.9,21.1,48.9,48.9,33.1,1.2,0.2,176.9,0.0,
2024-04-15,23:35,48.9,21.6,48.9,48.9,33.7,2.4,0.5,177,0.0,
2024-04-15,23:40,48.5,21.5,48.5,48.5,34.2,1.2,0.2,177,0.0,
2024-04-15,23:45,48.3,21.4,48.3,48.3,34.3,1.7,0.2,177.1,0.0,
2024-04-15,23:50,48.1,21.8,48.1,48.1,35.2,3,0.4,177.2,0.0,
2024-04-15,23:55,48,22,48.0,48,35.7,3.1,0.8,177.2,0.0,
2024-04-16,00:00,46.7,22.4,46.7,46.7,37.9,1.5,0.3,177.2,0.0,
2024-04-16,00:05,45.7,21.8,45.7,45.7,38.5,0.8,0,177.2,0.0,
2024-04-16,00:10,44.9,21.9,44.9,44.9,39.9,2.1,0.9,177.2,0.0,
2024-04-16,00:15,44.4,21.7,44.4,44.4,40.2,1.9,0.6,177.2,0.0,
2024-04-16,00:20,44,21.5,44.0,44,40.5,0.8,0,177.2,0.0,
2024-04-16,00:25,43.4,21.4,43.4,43.4,41.4,0,0,0,0.0,
2024-04-16,00:30,43.2,21.5,43.2,43.2,41.8,0,0,0,0.0,
2024-04-16,00:35,42.8,21.7,42.8,42.8,42.8,0,0,0,0.0,
2024-04-16,00:40,42.4,21.5,42.4,42.4,43.0,0,0,0,0.0,
2024-04-16,00:45,42.2,22.7,42.2,42.2,45.6,0,0,0,0.0,
2024-04-16,00:50,41.9,21.8,41.9,41.9,44.5,0,0,0,0.0,
2024-04-16,00:55,44.3,21.2,44.3,44.3,39.6,3.5,1.3,177.2,0.0,
2024-04-16,01:00,46.5,20.7,46.5,46.5,35.6,4.9,2.1,177.2,0.0,
2024-04-16,01:05,48.5,20.7,48.5,48.5,33.0,6.3,3.5,177.3,0.0,
2024-04-16,01:10,49.4,20.7,49.4,49.4,31.9,7.2,3.2,177.3,0.0,
2024-04-16,01:15,49.9,20.4,49.9,49.9,31.0,7.1,3.9,177.4,0.0,
2024-04-16,01:20,50.3,20.5,50.3,50.3,30.7,6.7,4.3,177.4,0.0,
2024-04-16,01:25,50.4,20.6,50.4,50.4,30.7,7.6,4,177.4,0.0,
2024-04-16,01:30,50,20.3,50.0,50,30.7,6.5,3.6,177.4,0.0,
2024-04-16,01:35,50.1,20.3,50.1,50.1,30.6,6.2,3.7,177.4,0.0,
2024-04-16,01:40,49.8,20.3,49.8,49.8,30.9,6.2,3.6,177.4,0.0,
2024-04-16,01:45,49.5,20,49.5,49.5,30.9,5.1,3.1,177.3,0.0,
2024-04-16,01:50,49.9,20.3,49.9,49.9,30.9,8.1,4.3,177.4,0.0,
2024-04-16,01:55,49.5,19.8,49.5,49.5,30.6,6.3,4.2,177.4,0.0,
2024-04-16,02:00,49.3,20.1,49.3,49.3,31.2,6.2,3.9,177.3,0.0,
2024-04-16,02:05,49.1,20,49.1,49.1,31.3,7.8,3.7,177.3,0.0,
2024-04-16,02:10,49,20,49.0,49,31.4,8.3,5.2,177.4,0.0,
2024-04-16,02:15,49.1,20.2,49.1,49.1,31.6,6.9,4,177.4,0.0,
2024-04-16,02:20,48.7,20,48.7,48.7,31.8,6.7,3.3,177.3,0.0,
2024-04-16,02:25,48.7,19.9,48.7,48.7,31.7,6.9,3.5,177.4,0.0,
2024-04-16,02:30,48.7,19.9,48.7,48.7,31.6,6,3.3,177.3,0.0,
2024-04-16,02:35,48.8,19.9,48.8,48.8,31.6,7.1,3.2,177.4,0.0,
2024-04-16,02:40,48.8,20,48.8,48.8,31.8,6.3,1.6,177.3,0.0,
2024-04-16,02:45,48.8,20.2,48.8,48.8,32.0,4,1.1,177.3,0.0,
2024-04-16,02:50,48.4,20.4,48.4,48.4,32.8,2.1,0.5,177.2,0.0,
2024-04-16,02:55,47.8,20.3,47.8,47.8,33.3,2.2,0.3,177.3,0.0,
2024-04-16,03:00,47,20,47.0,47,34.0,1.2,0.1,177.3,0.0,
2024-04-16,03:05,46.6,19.9,46.6,46.6,34.2,0,0,0,0.0,
2024-04-16,03:10,46.5,19.9,46.5,46.5,34.5,1.5,0.2,177.3,0.0,
2024-04-16,03:15,47.4,19.8,47.4,47.4,33.2,3,1.4,177.2,0.0,
2024-04-16,03:20,48,19.6,48.0,48,32.1,4.7,2,177.2,0.0,
2024-04-16,03:25,48.5,19.5,48.5,48.5,31.4,4.4,2.6,177.2,0.0,
2024-04-16,03:30,49.1,19.4,49.1,49.1,30.6,6,3.2,177.3,0.0,
2024-04-16,03:35,49.4,20,49.4,49.4,31.0,4.6,2.3,177.3,0.0,
2024-04-16,03:40,49.1,19.9,49.1,49.1,31.2,4.9,2.1,177.2,0.0,
2024-04-16,03:45,48.8,19.9,48.8,48.8,31.5,5.6,2.3,177.3,0.0,
2024-04-16,03:50,48.4,20.2,48.4,48.4,32.4,4.6,1.1,177.4,0.0,
2024-04-16,03:55,48,20.3,48.0,48,33.0,0,0,0,0.0,
2024-04-16,04:00,47.3,20.7,47.3,47.3,34.5,0,0,0,0.0,
2024-04-16,04:05,46.3,20.5,46.3,46.3,35.6,0,0,0,0.0,
2024-04-16,04:10,45.4,21.2,45.4,45.4,37.9,1.7,0.4,177.4,0.0,
2024-04-16,04:15,44.8,21,44.8,44.8,38.5,0.8,0,177.4,0.0,
2024-04-16,04:20,44.1,21,44.1,44.1,39.6,0,0,0,0.0,
2024-04-16,04:25,43.9,21.2,43.9,43.9,40.1,0,0,0,0.0,
2024-04-16,04:30,43.6,21.6,43.6,43.6,41.3,0.8,0,177.4,0.0,
2024-04-16,04:35,43.3,21.2,43.3,43.3,41.0,1.9,0.3,177.4,0.0,
2024-04-16,04:40,43.3,21.3,43.3,43.3,41.1,2.4,0.4,177.4,0.0,
2024-04-16,04:45,42.9,20.7,42.9,42.9,40.9,1.5,0.4,177.4,0.0,
2024-04-16,04:50,42.1,20.3,42.1,42.1,41.5,3.7,2,177.4,0.0,
2024-04-16,04:55,41.4,20.4,41.4,41.4,42.8,3.3,1.6,177.4,0.0,
2024-04-16,05:00,40.6,20,40.6,40.6,43.2,3.1,1.1,177.4,0.0,
2024-04-16,05:05,39.8,21.3,39.8,39.8,47.3,2.1,0.2,177.4,0.0,
2024-04-16,05:10,39.6,21.3,39.6,39.6,47.6,2.4,1.8,177.4,0.0,
2024-04-16,05:15,39.3,21.4,39.3,39.3,48.2,2.6,0.4,177.4,0.0,
2024-04-16,05:20,39.6,21.5,39.6,39.6,48.2,2.1,0.9,177.5,0.0,
2024-04-16,05:25,39.4,21.3,39.4,39.4,47.9,2.2,0.3,177.5,0.0,
2024-04-16,05:30,39.5,21.8,39.5,39.5,48.9,1,0.1,177.6,0.0,
2024-04-16,05:35,39,21.8,39.0,39,49.8,1.5,0.3,177.6,0.0,
2024-04-16,05:40,39.4,21.6,39.4,39.4,48.6,3.5,1.3,177.7,0.0,
2024-04-16,05:45,39.9,21.2,39.9,39.9,46.8,2.6,0.6,177.7,0.0,
2024-04-16,05:50,41,21.7,41.0,41,45.8,2.8,1.7,177.7,0.0,
2024-04-16,05:55,42.5,21.1,42.5,42.5,42.1,4.7,3,177.7,0.0,
2024-04-16,06:00,43.2,21.3,43.2,43.2,41.4,5.5,1.7,177.7,0.0,
2024-04-16,06:05,43.4,21.5,43.4,43.4,41.4,3.7,1.5,177.7,0.0,
2024-04-16,06:10,43.6,21.5,43.6,43.6,41.3,4.9,2.1,177.7,0.0,
2024-04-16,06:15,43.7,21.7,43.7,43.7,41.4,3.5,1.5,177.7,0.0,
2024-04-16,06:20,43.9,21.8,43.9,43.9,41.2,3,1.7,177.6,0.0,
2024-04-16,06:25,43.4,21.6,43.4,43.4,41.6,2.4,0.5,177.7,0.0,
2024-04-16,06:30,43.4,21.9,43.4,43.4,42.2,3.5,0.8,177.6,0.0,
2024-04-16,06:35,42.9,22,42.9,42.9,43.1,2.4,1.2,177.7,0.0,
2024-04-16,06:40,42.6,22.4,42.6,42.6,44.2,1.9,1.3,177.7,0.0,
2024-04-16,06:45,42.3,22.1,42.3,42.3,44.3,1.9,0.7,177.7,0.0,
2024-04-16,06:50,41.8,22.5,41.8,41.8,46.0,2.1,1.1,177.7,0.0,
2024-04-16,06:55,41.5,22.6,41.5,41.5,46.7,3.7,2.4,177.7,0.0,
2024-04-16,07:00,41.2,22.3,41.2,41.2,46.5,3.3,2.5,177.7,0.0,
2024-04-16,07:05,41.5,22.5,41.5,41.5,46.4,3.1,2.4,177.7,0.0,
2024-04-16,07:10,42.5,23.1,42.5,42.5,45.9,3.8,2.8,177.7,0.0,
2024-04-16,07:15,43.1,22.9,43.1,43.1,44.5,2.8,1.6,177.7,0.0,
2024-04-16,07:20,44,23.2,44.0,44,43.6,2.1,0.5,177.7,0.0,
2024-04-16,07:25,44.7,23.3,44.7,44.7,42.4,1.3,0.2,177.7,0.0,
2024-04-16,07:30,44.3,24.1,44.3,44.3,44.7,2.8,0.7,177.7,0.0,
2024-04-16,07:35,43.7,24,43.7,43.7,45.6,2.6,0.8,177.7,0.0,
2024-04-16,07:40,43.6,25,43.6,43.6,47.5,0,0,0,0.0,
2024-04-16,07:45,44.8,24.5,44.8,44.8,44.5,2.4,0.6,177.7,0.0,
2024-04-16,07:50,46.2,24,46.2,46.2,41.4,1.5,0.2,177.7,0.0,
2024-04-16,07:55,48.3,22.9,48.3,48.3,36.6,6,2,177.7,0.0,
2024-04-16,08:00,49.8,23.3,49.8,49.8,35.2,4,2,177.6,0.0,
2024-04-16,08:05,50.7,23,50.7,50.7,33.5,6.9,4.2,177.6,0.0,
2024-04-16,08:10,51.7,23.3,51.7,51.7,32.8,6.2,2.9,177.6,0.0,
2024-04-16,08:15,51.3,24.9,51.3,51.3,35.5,5.5,2.3,177.5,0.0,
2024-04-16,08:20,51.2,24.6,51.2,51.2,35.1,2.4,0.6,177.4,0.0,
2024-04-16,08:25,51.5,22.7,51.5,51.5,32.1,7.1,1.2,177.3,0.0,
2024-04-16,08:30,52.8,23,52.8,52.8,31.1,7.4,4.1,177.3,0.0,
2024-04-16,08:35,53.8,22.9,53.8,53.8,29.8,6.3,2.4,177.4,0.0,
2024-04-16,08:40,54.8,23.9,54.8,54.8,30.0,4.9,1.9,177.4,0.0,
2024-04-16,08:45,55.2,23.3,55.2,55.2,28.7,5.6,2.7,177.3,0.0,
2024-04-16,08:50,55.6,23.1,55.6,55.6,28.2,6.2,3.5,177.3,0.0,
2024-04-16,08:55,56.3,23.4,56.3,56.3,27.8,4.4,2.6,177.3,0.0,
2024-04-16,09:00,56.5,22.7,56.5,56.5,26.9,7.6,4.6,177.3,0.0,
2024-04-16,09:05,57.1,22.3,57.1,57.1,25.7,6.5,2.8,177.2,0.0,
2024-04-16,09:10,57.3,22.1,57.3,57.3,25.4,5.5,2.9,177.2,0.0,
2024-04-16,09:15,57.1,22.9,57.1,57.1,26.4,8.3,3.7,177.1,0.0,
2024-04-16,09:20,57.6,22.1,57.6,57.6,25.0,5.8,2,177,0.0,
2024-04-16,09:25,57.1,21.7,57.1,57.1,25.1,7.6,4,177.1,0.0,
2024-04-16,09:30,57.5,22.7,57.5,57.5,25.9,6.9,3.4,177.2,0.0,
2024-04-16,09:35,57.8,22.3,57.8,57.8,25.1,6,3.1,177,0.0,
2024-04-16,09:40,58.6,23.3,58.6,58.6,25.4,5.8,3.1,177,0.0,
2024-04-16,09:45,58.5,22.7,58.5,58.5,24.8,6.2,3.3,177,0.0,
2024-04-16,09:50,58.5,22.3,58.5,58.5,24.5,8,3.9,177,0.0,
2024-04-16,09:55,58,22.5,58.0,58,25.1,6.5,3.6,177,0.0,
2024-04-16,10:00,58.5,23.2,58.5,58.5,25.4,8.5,4,177,0.0,
2024-04-16,10:05,58.9,22.9,58.9,58.9,24.8,7.1,3.4,177,0.0,
2024-04-16,10:10,58.7,23.9,58.7,58.7,26.0,8.5,5.7,176.9,0.0,
2024-04-16,10:15,58.5,22.5,58.5,58.5,24.7,10.1,6,176.9,0.0,
2024-04-16,10:20,58.8,23.1,58.8,58.8,25.0,8.8,4.7,176.9,0.0,
2024-04-16,10:25,59.5,23.5,59.5,59.5,24.9,7.2,4.3,177,0.0,
2024-04-16,10:30,60,23.8,60.0,60,24.7,7.1,4.6,177,0.0,
2024-04-16,10:35,60.4,23.6,60.4,60.4,24.1,7.4,4.9,177,0.0,
2024-04-16,10:40,60.6,23.4,60.6,60.6,23.8,9,4.8,176.9,0.0,
2024-04-16,10:45,60.7,24.2,60.7,60.7,24.5,9.7,5.1,176.7,0.0,
2024-04-16,10:50,61,23.6,61.0,61,23.7,8.7,5.4,176.8,0.0,
2024-04-16,10:55,61.3,24,61.3,61.3,23.8,10.1,7.4,176.9,0.0,
2024-04-16,11:00,60.7,24,60.7,60.7,24.3,10.1,6.3,176.8,0.0,
2024-04-16,11:05,60.7,23.8,60.7,60.7,24.1,9.7,6.7,176.8,0.0,
2024-04-16,11:10,61.1,23.5,61.1,61.1,23.5,9,6.1,176.8,0.0,
2024-04-16,11:15,60.8,23.9,60.8,60.8,24.2,10.1,6.4,176.9,0.0,
2024-04-16,11:20,61.7,23.7,61.7,61.7,23.2,10.3,6.8,176.7,0.0,
2024-04-16,11:25,62.4,23.1,62.4,62.4,22.1,5.3,2.8,176.8,0.0,
2024-04-16,11:30,62.5,24.2,62.5,62.5,23.1,8.7,3.6,176.8,0.0,
2024-04-16,11:35,62.7,24.2,62.7,62.7,22.9,7.8,4.8,176.8,0.0,
2024-04-16,11:40,62.3,24.4,62.3,62.3,23.4,11.5,6.1,176.7,0.0,
2024-04-16,11:45,62.3,23.7,62.3,62.3,22.7,9.9,4,176.7,0.0,
2024-04-16,11:50,62.7,25,62.7,62.7,23.6,7.1,4.7,176.8,0.0,
2024-04-16,11:55,63.3,22.9,63.3,63.3,21.3,7.8,4.3,176.9,0.0,
2024-04-16,12:00,63.2,23.3,63.2,63.2,21.6,7.2,3,176.8,0.0,
2024-04-16,12:05,63.2,23.4,63.2,63.2,21.7,7.2,4.5,176.6,0.0,
2024-04-16,12:10,64.1,24,64.1,64.1,21.6,8.1,2.5,176.7,0.0,
2024-04-16,12:15,65.3,25.5,65.3,65.3,22.0,10.3,5.7,176.7,0.0,
2024-04-16,12:20,65.9,26.4,65.9,65.9,22.4,8.8,4.2,176.7,0.0,
2024-04-16,12:25,66.2,24.5,66.2,66.2,20.5,8.7,4.8,176.9,0.0,
2024-04-16,12:30,66.2,24.7,66.2,66.2,20.7,9.7,5.4,176.8,0.0,
2024-04-16,12:35,65.9,23.6,65.9,65.9,19.9,6.3,4.1,176.7,0.0,
2024-04-16,12:40,66.1,25.7,66.1,66.1,21.7,8.1,4.3,176.7,0.0,
2024-04-16,12:45,65.9,24.9,65.9,65.9,21.0,5.5,3.5,176.8,0.0,
2024-04-16,12:50,66.8,24.3,66.8,66.8,19.9,6.9,3.4,176.8,0.0,
2024-04-16,12:55,66.4,25.4,66.4,66.4,21.1,8.1,4.1,176.8,0.0,
2024-04-16,13:00,66.7,27.3,66.7,66.7,22.6,6.5,4.1,176.8,0.0,
2024-04-16,13:05,67,24.3,67.0,67,19.8,7.1,4.1,176.8,0.0,
2024-04-16,13:10,67.4,24.4,67.4,67.4,19.6,5.8,3.2,176.7,0.0,
2024-04-16,13:15,66.6,26.3,66.6,66.6,21.8,6.2,3.5,176.7,0.0,
2024-04-16,13:20,68.8,25.8,68.8,68.8,19.8,6.2,2.2,176.8,0.0,
2024-04-16,13:25,69.2,24.4,69.2,69.2,18.4,6.7,3.2,176.8,0.0,
2024-04-16,13:30,70.4,23.2,70.4,70.4,16.8,10.8,4.7,176.8,0.0,
2024-04-16,13:35,69.7,21.4,69.7,69.7,16.0,8.1,4.1,176.8,0.0,
2024-04-16,13:40,70,23.2,70.0,70,17,6.5,2.3,176.7,0.0,
2024-04-16,13:45,70.9,21.1,70.9,70.9,15.1,9.4,4.7,176.8,0.0,
2024-04-16,13:50,71,21.6,71.0,71,15.4,8,4.4,176.8,0.0,
2024-04-16,13:55,70.8,21,70.8,70.8,15.1,10.8,4.4,176.8,0.0,
2024-04-16,14:00,71,20.2,71.0,71,14.5,7.1,4.3,176.7,0.0,
2024-04-16,14:05,71,21.7,71.0,71,15.4,8.7,4,176.7,0.0,
2024-04-16,14:10,71.6,19.9,71.6,71.6,14.0,11.3,5.3,176.7,0.0,
2024-04-16,14:15,71.9,21.4,71.9,71.9,14.8,7.8,4.1,176.5,0.0,
2024-04-16,14:20,71.9,20.2,71.9,71.9,14.1,11,6.3,176.7,0.0,
2024-04-16,14:25,71.7,20.6,71.7,71.7,14.4,8.5,4.8,176.7,0.0,
2024-04-16,14:30,71.9,20.6,71.9,71.9,14.3,10.6,4.3,176.7,0.0,
2024-04-16,14:35,72.7,22.3,72.7,72.7,15.0,10.5,4.1,176.6,0.0,
2024-04-16,14:40,72.1,22.7,72.1,72.1,15.5,9.4,5.3,176.7,0.0,
2024-04-16,14:45,71,22.2,71.0,71,15.8,7.4,3.8,176.6,0.0,
2024-04-16,14:50,72.3,22.2,72.3,72.3,15.1,9.2,4.2,176.7,0.0,
2024-04-16,14:55,72.3,21.3,72.3,72.3,14.6,10.3,5.4,176.7,0.0,
2024-04-16,15:00,72.1,22.8,72.1,72.1,15.6,8.7,2.6,176.6,0.0,
2024-04-16,15:05,72.5,21.6,72.5,72.5,14.6,11.3,2.6,176.5,0.0,
2024-04-16,15:10,73.1,22.8,73.1,73.1,15.0,10.8,6.6,176.7,0.0,
2024-04-16,15:15,72.6,21.7,72.6,72.6,14.6,6.9,3.5,176.6,0.0,
2024-04-16,15:20,73.2,20.9,73.2,73.2,13.8,11.7,4.1,176.6,0.0,
2024-04-16,15:25,73.1,21.4,73.1,73.1,14.2,10.3,4.4,176.6,0.0,
2024-04-16,15:30,73.6,19.7,73.6,73.6,13.0,8.5,4.7,176.5,0.0,
2024-04-16,15:35,73.1,19.3,73.1,73.1,13.0,9.4,3.9,176.6,0.0,
2024-04-16,15:40,73,19.7,73.0,73,13.3,5.6,2.3,176.5,0.0,
2024-04-16,15:45,73.4,20.8,73.4,73.4,13.7,8.5,4.1,176.5,0.0,
2024-04-16,15:50,74,18.8,74.0,74,12.3,7.6,4.2,176.5,0.0,
2024-04-16,15:55,74,20.2,74.0,74,13.1,6,2.2,176.5,0.0,
2024-04-16,16:00,74.7,19.5,74.7,74.7,12.4,11.2,3.7,176.5,0.0,
2024-04-16,16:05,74.8,19.6,74.8,74.8,12.4,9.7,4.7,176.5,0.0,
2024-04-16,16:10,74.2,20,74.2,74.2,12.9,8.1,4.7,176.5,0.0,
2024-04-16,16:15,74.5,18,74.5,74.5,11.8,7.8,3.4,176.5,0.0,
2024-04-16,16:20,74.3,17.6,74.3,74.3,11.6,7.6,3.4,176.5,0.0,
2024-04-16,16:25,74.8,18.7,74.8,74.8,12.0,8.3,3.5,176.5,0.0,
2024-04-16,16:30,75.1,18.8,75.1,75.1,11.9,9.7,4.7,176.5,0.0,
2024-04-16,16:35,74.3,18.7,74.3,74.3,12.2,10.6,5.4,176.5,0.0,
2024-04-16,16:40,73.7,18.4,73.7,73.7,12.2,6.3,4,176.4,0.0,
2024-04-16,16:45,74.1,19.8,74.1,74.1,12.9,5.3,2.2,176.5,0.0,
2024-04-16,16:50,73.8,19.5,73.8,73.8,12.8,4.7,2.7,176.5,0.0,
2024-04-16,16:55,74.3,18.6,74.3,74.3,12.1,9.2,5.5,176.5,0.0,
2024-04-16,17:00,74.4,19.1,74.4,74.4,12.4,8.8,4.9,176.5,0.0,
2024-04-16,17:05,74.6,19.3,74.6,74.6,12.4,6.9,4.3,176.5,0.0,
2024-04-16,17:10,74.6,19.6,74.6,74.6,12.5,8,3.7,176.5,0.0,
2024-04-16,17:15,74.2,19.3,74.2,74.2,12.6,5.6,2.3,176.5,0.0,
2024-04-16,17:20,74.3,20.3,74.3,74.3,13.0,9.9,4.3,176.5,0.0,
2024-04-16,17:25,74.5,20.6,74.5,74.5,13.1,8,3.7,176.3,0.0,
2024-04-16,17:30,74.1,18.5,74.1,74.1,12.1,8.8,4.7,176.4,0.0,
2024-04-16,17:35,73.9,19.3,73.9,73.9,12.7,5.6,3.6,176.4,0.0,
2024-04-16,17:40,73.7,18.8,73.7,73.7,12.5,5.8,3.3,176.4,0.0,
2024-04-16,17:45,74,19.5,74.0,74,12.7,6.9,3.6,176.4,0.0,
2024-04-16,17:50,74.2,17.7,74.2,74.2,11.7,6.9,4.5,176.4,0.0,
2024-04-16,17:55,74.1,18.9,74.1,74.1,12.3,5.1,2.9,176.4,0.0,
2024-04-16,18:00,73.8,18.2,73.8,73.8,12.1,7.8,4.3,176.4,0.0,
2024-04-16,18:05,73.5,18.1,73.5,73.5,12.2,8.3,6,176.3,0.0,
2024-04-16,18:10,73.5,18,73.5,73.5,12.2,8.5,5.9,176.4,0.0,
2024-04-16,18:15,73.3,17.1,73.3,73.3,11.8,9,5.5,176.3,0.0,
2024-04-16,18:20,73.5,17.6,73.5,73.5,11.9,9.7,4.8,176.4,0.0,
2024-04-16,18:25,73.5,17,73.5,73.5,11.6,7.2,2.5,176.4,0.0,
2024-04-16,18:30,73.5,17,73.5,73.5,11.6,8.7,4.3,176.4,0.0,
2024-04-16,18:35,73.2,16.8,73.2,73.2,11.6,7.1,4.3,176.4,0.0,
2024-04-16,18:40,73.1,17.9,73.1,73.1,12.3,6.9,4.1,176.4,0.0,
2024-04-16,18:45,73.1,17.4,73.1,73.1,12.0,6.2,3.8,176.4,0.0,
2024-04-16,18:50,72.8,17.1,72.8,72.8,12.0,7.8,4.8,176.4,0.0,
2024-04-16,18:55,72.5,18.1,72.5,72.5,12.6,6.9,4.3,176.4,0.0,
2024-04-16,19:00,72.1,16.9,72.1,72.1,12.2,6.3,4.6,176.4,0.0,
2024-04-16,19:05,71.2,18.3,71.2,71.2,13.2,7.6,5.4,176.3,0.0,
2024-04-16,19:10,70.9,17.6,70.9,70.9,13.0,6.3,4.6,176.4,0.0,
2024-04-16,19:15,70.5,17.3,70.5,70.5,13,7.1,5.4,176.4,0.0,
2024-04-16,19:20,70.1,17.2,70.1,70.1,13.1,6.9,4.7,176.4,0.0,
2024-04-16,19:25,69.7,16.6,69.7,69.7,13,5.5,4.6,176.4,0.0,
2024-04-16,19:30,69.3,17,69.3,69.3,13.3,5.8,4.5,176.4,0.0,
2024-04-16,19:35,68.9,17.9,68.9,68.9,14.2,7.2,5.4,176.4,0.0,
2024-04-16,19:40,68.2,18.4,68.2,68.2,14.8,7.1,5.5,176.3,0.0,
2024-04-16,19:45,67.8,17.8,67.8,67.8,14.6,7.4,5.1,176.4,0.0,
2024-04-16,19:50,67,18.6,67.0,67,15.5,5.3,4.2,176.4,0.0,
2024-04-16,19:55,66.7,18.9,66.7,66.7,15.9,4.4,3.3,176.5,0.0,
2024-04-16,20:00,65.9,18.6,65.9,65.9,16.1,4,2.4,176.5,0.0,
2024-04-16,20:05,65.6,19.2,65.6,65.6,16.7,3,1.3,176.5,0.0,
2024-04-16,20:10,65,19.3,65.0,65,17.2,2.6,0.6,176.5,0.0,
2024-04-16,20:15,64.3,19.5,64.3,64.3,17.7,0,0,0,0.0,
2024-04-16,20:20,63.6,18.3,63.6,63.6,17.2,2.6,0.6,176.5,0.0,
2024-04-16,20:25,62.9,18.7,62.9,62.9,18.0,1.2,0.1,176.5,0.0,
2024-04-16,20:30,62.3,18.1,62.3,62.3,17.9,1.7,0.3,176.5,0.0,
2024-04-16,20:35,62.1,17.8,62.1,62.1,17.8,2.4,0.5,176.5,0.0,
2024-04-16,20:40,61.9,18.1,61.9,61.9,18.1,2.6,0.6,176.5,0.0,
2024-04-16,20:45,61.8,18,61.8,61.8,18.1,3.3,2,176.5,0.0,
2024-04-16,20:50,61.7,18,61.7,61.7,18.2,3.5,2.6,176.5,0.0,
2024-04-16,20:55,61.5,18.9,61.5,61.5,19.1,2.2,1.4,176.5,0.0,
2024-04-16,21:00,60,19.1,60.0,60,20.3,3.3,2.6,176.5,0.0,
2024-04-16,21:05,60.6,19.7,60.6,60.6,20.4,3.3,1.8,176.5,0.0,
2024-04-16,21:10,61.3,19.5,61.3,61.3,19.7,3.7,2.5,176.6,0.0,
2024-04-16,21:15,61.9,19.9,61.9,61.9,19.7,4.4,2.4,176.6,0.0,
2024-04-16,21:20,61.4,21.1,61.4,61.4,21.1,4.4,3.1,176.6,0.0,
2024-04-16,21:25,60.3,21,60.3,60.3,21.7,4,3.3,176.6,0.0,
2024-04-16,21:30,59.8,21,59.8,59.8,22.1,3.1,1.8,176.6,0.0,
2024-04-16,21:35,59.3,20.7,59.3,59.3,22.3,3.3,2.2,176.6,0.0,
2024-04-16,21:40,59,20.4,59.0,59,22.2,4.2,2.8,176.6,0.0,
2024-04-16,21:45,59,20.4,59.0,59,22.2,4,2.9,176.6,0.0,
2024-04-16,21:50,58.8,20.2,58.8,58.8,22.3,3.8,2.9,176.6,0.0,
2024-04-16,21:55,58.5,20.1,58.5,58.5,22.3,4.7,3.2,176.6,0.0,
2024-04-16,22:00,58.5,20.5,58.5,58.5,22.7,3.8,3,176.6,0.0,
2024-04-16,22:05,58.6,21,58.6,58.6,23.1,4.9,3.8,176.6,0.0,
2024-04-16,22:10,58.8,20.7,58.8,58.8,22.7,5.8,4.2,176.6,0.0,
2024-04-16,22:15,58.2,21.1,58.2,58.2,23.6,5.3,4.1,176.6,0.0,
2024-04-16,22:20,58.2,21.2,58.2,58.2,23.6,5.5,3.9,176.6,0.0,
2024-04-16,22:25,57.4,21.1,57.4,57.4,24.3,4.7,3.9,176.6,0.0,
2024-04-16,22:30,57.1,21.1,57.1,57.1,24.5,4.2,3.4,176.6,0.0,
2024-04-16,22:35,56.8,21.1,56.8,56.8,24.8,4.4,3.2,176.6,0.0,
2024-04-16,22:40,55.8,21,55.8,55.8,25.6,3.7,2.8,176.6,0.0,
2024-04-16,22:45,55.5,21.4,55.5,55.5,26.2,3,2.6,176.7,0.0,
2024-04-16,22:50,55.1,21.3,55.1,55.1,26.6,3.5,2.1,176.7,0.0,
2024-04-16,22:55,54.5,23,54.5,54.5,29.1,1.3,0.1,176.7,0.0,
2024-04-16,23:00,54,23.3,54.0,54,30.1,0,0,0,0.0,
2024-04-16,23:05,53.5,22.2,53.5,53.5,29.3,3.8,1.7,176.9,0.0,
2024-04-16,23:10,52.9,23.2,52.9,52.9,31.2,4.4,3.9,176.9,0.0,
2024-04-16,23:15,52.7,22.1,52.7,52.7,29.9,4.6,4,176.9,0.0,
2024-04-16,23:20,53.9,21.9,53.9,53.9,28.5,3.8,3.1,176.9,0.0,
2024-04-16,23:25,54.3,22.2,54.3,54.3,28.4,3.5,3,176.9,0.0,
2024-04-16,23:30,54.1,22.2,54.1,54.1,28.6,4.2,2.9,176.9,0.0,
2024-04-16,23:35,54,22.4,54.0,54,29.0,3.1,2.6,176.9,0.0,
2024-04-16,23:40,52.9,22.2,52.9,52.9,30.0,3.3,2.4,176.9,0.0,
2024-04-16,23:45,53.2,22.6,53.2,53.2,30.0,3,1.4,176.9,0.0,
2024-04-16,23:50,52.7,22.7,52.7,52.7,30.8,0,0,0,0.0,
2024-04-16,23:55,52,24.3,52.0,52,33.8,1.7,0.2,176.9,0.0,
2024-04-17,00:00,51.6,23.2,51.6,51.6,32.8,3.5,2.8,176.9,0.0,
2024-04-17,00:05,51.3,24.7,51.3,51.3,35.3,3.5,1.3,176.9,0.0,
2024-04-17,00:10,51.2,23.6,51.2,51.2,33.8,1.3,0.2,176.9,0.0,
2024-04-17,00:15,50.9,24.6,50.9,50.9,35.7,0,0,0,0.0,
2024-04-17,00:20,50.3,24.5,50.3,50.3,36.4,0,0,0,0.0,
2024-04-17,00:25,49.6,25,49.6,49.6,37.9,0,0,0,0.0,
2024-04-17,00:30,49,25,49.0,49,38.9,0,0,0,0.0,
2024-04-17,00:35,48.3,25.1,48.3,48.3,40.1,0,0,0,0.0,
2024-04-17,00:40,48,25.1,48.0,48,40.6,0,0,0,0.0,
2024-04-17,00:45,47.6,24.7,47.6,47.6,40.4,0,0,0,0.0,
2024-04-17,00:50,47.6,25.7,47.6,47.6,42.2,0,0,0,0.0,
2024-04-17,00:55,47.1,24.7,47.1,47.1,41.2,0,0,0,0.0,
2024-04-17,01:00,46.7,25.5,46.7,46.7,43.1,0,0,0,0.0,
2024-04-17,01:05,46,24.9,46.0,46,43.4,0,0,0,0.0,
2024-04-17,01:10,45.4,25.1,45.4,45.4,44.6,0,0,0,0.0,
2024-04-17,01:15,45.4,25.4,45.4,45.4,45.3,0,0,0,0.0,
2024-04-17,01:20,45.3,25.2,45.3,45.3,45.1,0,0,0,0.0,
2024-04-17,01:25,45.3,24.9,45.3,45.3,44.4,0,0,0,0.0,
2024-04-17,01:30,45.1,25.1,45.1,45.1,45.1,0,0,0,0.0,
2024-04-17,01:35,44.8,25.1,44.8,44.8,45.6,0,0,0,0.0,
2024-04-17,01:40,44.4,26.1,44.4,44.4,48.5,0,0,0,0.0,
2024-04-17,01:45,43.7,26.1,43.7,43.7,49.7,0,0,0,0.0,
2024-04-17,01:50,43.4,25.6,43.4,43.4,49.2,0,0,0,0.0,
2024-04-17,01:55,43.6,25.1,43.6,43.6,47.8,1,0.1,177.2,0.0,
2024-04-17,02:00,43.7,24.6,43.7,43.7,46.7,1.7,0.3,177.3,0.0,
2024-04-17,02:05,43.4,24.4,43.4,43.4,46.7,0,0,0,0.0,
2024-04-17,02:10,43.4,24.3,43.4,43.4,46.7,0,0,0,0.0,
2024-04-17,02:15,43.2,24.6,43.2,43.2,47.7,0,0,0,0.0,
2024-04-17,02:20,43,24.9,43.0,43,48.5,0,0,0,0.0,
2024-04-17,02:25,42.7,25.9,42.7,42.7,51.1,0,0,0,0.0,
2024-04-17,02:30,42.7,26,42.7,42.7,51.5,1.9,0.7,177.4,0.0,
2024-04-17,02:35,42.5,25.7,42.5,42.5,51.2,2.2,0.9,177.4,0.0,
2024-04-17,02:40,42.6,25.8,42.6,42.6,51.1,2.2,1,177.4,0.0,
2024-04-17,02:45,42.5,25.6,42.5,42.5,51.0,0,0,0,0.0,
2024-04-17,02:50,42.5,25,42.5,42.5,49.6,0,0,0,0.0,
2024-04-17,02:55,42.4,24.3,42.4,42.4,48.4,1.2,0.1,177.4,0.0,
2024-04-17,03:00,42.7,24.6,42.7,42.7,48.6,2.4,0.7,177.4,0.0,
2024-04-17,03:05,42.2,23.4,42.2,42.2,47.0,0.8,0,177.4,0.0,
2024-04-17,03:10,42.2,23.3,42.2,42.2,46.7,0,0,0,0.0,
2024-04-17,03:15,42,23.5,42.0,42,47.6,0,0,0,0.0,
2024-04-17,03:20,41.8,25.5,41.8,41.8,52.0,0,0,0,0.0,
2024-04-17,03:25,41.2,26,41.2,41.2,54.4,0,0,0,0.0,
2024-04-17,03:30,40.8,26.1,40.8,40.8,55.5,1.2,0.1,177.5,0.0,
2024-04-17,03:35,40.5,26.7,40.5,40.5,57.4,2.2,0.7,177.5,0.0,
2024-04-17,03:40,40.4,26,40.4,40.4,56.2,0,0,0,0.0,
2024-04-17,03:45,40.2,25.9,40.2,40.2,56.4,0,0,0,0.0,
2024-04-17,03:50,39.5,26.3,39.5,39.5,59.0,0,0,0,0.0,
2024-04-17,03:55,39.9,26.7,39.9,39.9,58.9,0.8,0,177.7,0.0,
2024-04-17,04:00,39.9,25.9,39.9,39.9,57.0,0,0,0,0.0,
2024-04-17,04:05,39.8,26.1,39.8,39.8,58.0,0,0,0,0.0,
2024-04-17,04:10,39.4,25.6,39.4,39.4,57.3,0,0,0,0.0,
2024-04-17,04:15,39.1,25.1,39.1,39.1,56.8,0,0,0,0.0,
2024-04-17,04:20,39.1,25,39.1,39.1,56.8,1.9,0.3,177.7,0.0,
2024-04-17,04:25,38.7,24.6,38.7,38.7,56.7,0,0,0,0.0,
2024-04-17,04:30,38.4,24.8,38.4,38.4,57.7,1,0,177.7,0.0,
2024-04-17,04:35,37.9,24.9,37.9,37.9,59.2,1.3,0.3,177.7,0.0,
2024-04-17,04:40,37.7,25.2,37.7,37.7,60.4,0,0,0,0.0,
2024-04-17,04:45,37.5,25.4,37.5,37.5,61.4,0,0,0,0.0,
2024-04-17,04:50,37.7,25.2,37.7,37.7,60.2,0,0,0,0.0,
2024-04-17,04:55,37.7,24.9,37.7,37.7,59.6,0,0,0,0.0,
2024-04-17,05:00,37.4,24.5,37.4,37.4,59.3,0,0,0,0.0,
2024-04-17,05:05,37.2,24.8,37.2,37.2,60.5,0,0,0,0.0,
2024-04-17,05:10,37.2,24.9,37.2,37.2,60.8,0,0,0,0.0,
2024-04-17,05:15,37.5,24.9,37.5,37.5,60.0,0,0,0,0.0,
2024-04-17,05:20,37.7,25,37.7,37.7,60.0,1,0.2,177.7,0.0,
2024-04-17,05:25,37.4,25.5,37.4,37.4,61.8,0,0,0,0.0,
2024-04-17,05:30,37.2,25.7,37.2,37.2,62.9,2.2,0.5,177.7,0.0,
2024-04-17,05:35,36.8,25.4,36.8,36.8,63.0,0,0,0,0.0,
2024-04-17,05:40,36.5,25.9,36.5,36.5,65.2,0,0,0,0.0,
2024-04-17,05:45,36.1,26,36.1,36.1,66.4,0,0,0,0.0,
2024-04-17,05:50,35.8,25.8,35.8,35.8,66.5,0,0,0,0.0,
2024-04-17,05:55,36.5,25.9,36.5,36.5,65.0,1.7,0.6,177.9,0.0,
2024-04-17,06:00,36.6,25.5,36.6,36.6,63.8,0,0,0,0.0,
2024-04-17,06:05,36.5,25.1,36.5,36.5,63.2,0,0,0,0.0,
2024-04-17,06:10,36.3,25.3,36.3,36.3,64.1,0,0,0,0.0,
2024-04-17,06:15,36.2,25.1,36.2,36.2,63.8,0,0,0,0.0,
2024-04-17,06:20,36.2,24.9,36.2,36.2,63.4,0,0,0,0.0,
2024-04-17,06:25,36,26.7,36.0,36,68.8,0,0,0,0.0,